Tracking 20083 objects as of 9-Dec-2019
HD Live streaming from Space Station
objects crossing your sky now

FENGYUN 1C DEB

Track FENGYUN 1C DEB now!
10-day predictions


NORAD ID: 31989
Int'l Code: 1999-025CPS
Perigee: 846.0 km
Apogee: 1,023.2 km
Inclination: 99.5 °
Period: 103.6 minutes
Semi major axis: 7305 km
RCS: 0.0027 m2 (small)
Launch date: May 10, 1999
Source: People's Republic of China (PRC)
Launch site: Taiyaun Space Center, China (TSC)

Note: This is SATELLITE DEBRIS
aabbcc
Your satellite tracking list
Your tracking list is empty




NASA's NSSDC Master Catalog

Two Line Element Set (TLE):
1 31989U 99025CPS 19342.31043216 +.00000112 +00000-0 +11956-3 0  9993
2 31989 099.4650 354.7776 0121307 097.2852 320.4554 13.90339594631729
Source of the keplerian elements: AFSPC